Weather in Kissamos

Greece     35°29′39″N   23°39′12″E
temp.,
°C
wind,
m/s
gust,
m/s
humid.,
%
clouds,
%
prec.,
mm/h
press.,
hPa
HPBL,
m
15 may, sat
sat1500:00+16ssw33451 0.0 101651
03:00+15ssw33462 0.0 101567
06:00+16ssw33460 0.0 101354
09:00+22wsw34380 0.0 1014382
12:00+25wsw5632100 0.0 1013951
15:00+26sw79275 0.0 10111105
18:00+23sw693333 0.0 1011721
21:00+17sw466062 0.0 1011131
16 may, sun
sun1600:00+15sw47874 0.0 1011228
03:00+15wsw578714 0.1 1010402
06:00+15wsw588642 0.0 1010516
09:00+18wnw567132 0.0 1012807
12:00+20w555947 0.0 1012860
15:00+21w6758100 0.0 1012930
18:00+19w68686 0.0 1012898
21:00+16wsw588725 0.0 1013451
17 may, mon
mon1700:00+15wsw478615 0.0 1013401
03:00+15wsw358811 0.0 1012315
06:00+15wsw349127 0.0 1012203
09:00+19w45680 0.0 1013491
12:00+22w67522 0.0 1014691
15:00+23w68490 0.0 1014681
18:00+22wsw59500 0.0 1013558
21:00+19ssw45580 0.0 1014121
18 may, tue
tue1800:00+19ssw45560 0.0 101480
03:00+18sw44580 0.0 101381
06:00+18sw44590 0.0 101378
09:00+23wsw36470 0.0 1014421
12:00+26w47430 0.0 1015587
15:00+27w57370 0.0 1014697
18:00+26wsw57350 0.0 1014529
21:00+20sw44450 0.0 101445
19 may, wed
wed1900:00+21ssw44410 0.0 101445
03:00+20ssw44440 0.0 101344
06:00+21ssw44450 0.0 101351
09:00+26wsw47374 0.0 1013375
12:00+28w68350 0.0 1014659
15:00+28wsw69340 0.0 1013704
18:00+26wsw69362 0.0 1013553
21:00+21sw46466 0.0 1013131